Location: Marcé
(47.5801°N, 0.3280°W)
Time: 18:50:20
(UTC+01:00)

Tiros 1 despin weight - Pass Details

Date: 30 November 2021
Orbit: 592 x 641 km, 48.2° (Epoch: 21 January)

Event Time Altitude Azimuth Distance (km) Brightness Sun altitude
Rises 18:39:24 0° 275° (W) 2,824 ? -14.1°
Reaches altitude 10° 18:41:41 10° 276° (W) 1,923 ? -14.5°
Maximum altitude 18:46:05 84° 4° (N) 602 ? -15.2°
Enters shadow 18:48:30 27° 92° (E) 1,166 ? -15.6°
